Regional Weather Roundup
Issued by NWS

Home | Current Version | Previous Version | Graphics & Text | Print | Product List | Glossary On
Versions: 1 2 3 4 5 6 7 8 9 10 11 12 13 14 15 16 17 18 19 20 21 22 23 24 25 26 27 28 29 30 31 32 33 34 35 36 37 38 39 40 41 42 43 44 45 46 47 48 49 50
000
ASUS43 KTOP 032059
RWRKS

WEATHER ROUNDUP FOR KANSAS
NATIONAL WEATHER SERVICE GOODLAND KS
300 PM CST TUE MAR 03 2015

NOTE:  "FAIR" INDICATES FEW OR NO CLOUDS BELOW 12,000 FEET WITH NO
SIGNIFICANT WEATHER AND/OR OBSTRUCTIONS TO VISIBILITY.

KSZ001>006-013>018-027>032-041>047-032200-
NORTHWEST KANSAS

CITY           SKY/WX    TMP DP  RH WIND       PRES   REMARKS
GOODLAND       CLOUDY    29  15  56 N15       29.89F WCI  18
HAYS           CLOUDY    37  18  44 N18       29.91R WCI  27
HILL CITY      CLOUDY    37  16  42 N16       29.93R WCI  28
RUSSELL        CLOUDY    40  22  48 N17G24    29.90R WCI  31
$$

KSZ061>065-074>080-084>089-032200-
SOUTHWEST KANSAS

CITY           SKY/WX    TMP DP  RH WIND       PRES   REMARKS
DODGE CITY     CLOUDY    41  28  60 N21       29.84F
ELKHART          N/A     40  29  65 NE21        N/A  WCI  30
GARDEN CITY    CLOUDY    35  28  75 N20       29.85F WCI  24
GREAT BEND     CLOUDY    43  27  52 N21       29.88S
LIBERAL        CLOUDY    43  34  70 NE18G24   29.83F
$$

KSZ066>073-081>083-090>101-032200-
SOUTHEAST KANSAS

CITY           SKY/WX    TMP DP  RH WIND       PRES   REMARKS
CHANUTE        CLOUDY    49  40  71 W9        29.83R
COFFEYVILLE    CLOUDY    53  41  63 W12       29.84R
HUTCHINSON     CLOUDY    47  27  45 N16       29.84S
NEWTON         CLOUDY    43  27  52 N14G20    29.83S
PARSONS        CLOUDY    50  41  71 W12       29.85R
WICHITA INTL   CLOUDY    46  30  53 N15       29.83R
WICHITA JABRA  CLOUDY    46  31  55 N16       29.84R
WINFIELD       CLOUDY    48  40  73 S6        29.84R
$$

KSZ007>012-019>026-033>040-048>060-102>105-032200-
NORTHEAST KANSAS

CITY           SKY/WX    TMP DP  RH WIND       PRES   REMARKS
CONCORDIA      PTSUNNY   36  19  50 N17G29    29.90R WCI  26
EMPORIA        CLOUDY    46  32  58 N14       29.82R
LAWRENCE       CLOUDY    44  30  57 N17       29.84R
MANHATTAN      CLOUDY    45  27  49 N9G17     29.86R
OLATHE IND     CLOUDY    43  33  68 NW14      29.83R
OLATHE EXE     CLOUDY    43  33  68 N14G20    29.82R
SALINA         CLOUDY    47  26  44 N18       29.88R
TOPEKA BILLARD CLOUDY    45  28  51 N13       29.86R
TOPEKA FORBES  CLOUDY    46  29  51 N16       29.83R
$$



USA.gov is the U.S. government's official web portal to all federal, state and local government web resources and services.